Regional Weather Roundup
Issued by NWS

Home | Current Version | Previous Version | Graphics & Text | Print | Product List | Glossary On
Versions: 1 2 3 4 5 6 7 8 9 10 11 12 13 14 15 16 17 18 19 20 21 22 23 24 25 26 27 28 29 30 31 32 33 34 35 36 37 38 39 40 41 42 43 44 45 46 47 48 49 50
000
ASUS43 KMKX 220559
RWRWI

WISCONSIN REGIONAL WEATHER ROUNDUP
NATIONAL WEATHER SERVICE MILWAUKEE/SULLIVAN WI
1200 AM CST MON JAN 22 2018

NOTE: "FAIR" INDICATES FEW OR NO CLOUDS BELOW 12,000 FEET WITH NO
SIGNIFICANT WEATHER AND/OR OBSTRUCTIONS TO VISIBILITY.

WIZ001-002-006>008-014>016-023>028-220700-
NORTHWEST WISCONSIN

CITY           SKY/WX    TMP DP  RH WIND       PRES   REMARKS
SUPERIOR ARPT  LGT SNOW  30  30  98 E17       30.07S WCI  18
ASHLAND        CLOUDY    30  29  96 NE20G28   30.06F FOG     WCI  17
6HR MIN TEMP:  30; 6HR MAX TEMP:  32;

HAYWARD        CLOUDY    31  28  89 NE9       30.00R WCI  23
6HR MIN TEMP:  31; 6HR MAX TEMP:  35;

SIREN          CLOUDY    31  29  92 E6        30.01R WCI  25
CUMBERLAND     CLOUDY    32  28  86 NE12      29.95F WCI  23
RICE LAKE      FAIR      33  30  88 N14       29.97F WCI  23
CHETEK         MOCLDY    36  30  80 NE6       29.95S WCI  31
LADYSMITH      FAIR      35  30  83 N9        29.97S WCI  27
EAU CLAIRE     NOT AVBL
MENOMONIE      CLOUDY    38  31  76 N9        29.92F WCI  31
NEW RICHMOND   CLOUDY    35  28  77 NE10      29.93F WCI  27
OSCEOLA        CLOUDY    35  29  80 N10       29.97F WCI  27
$$

WIZ003>005-009-010-017-018-220700-
NORTH CENTRAL WISCONSIN

CITY           SKY/WX    TMP DP  RH WIND       PRES   REMARKS
MANITOWISH WTR CLOUDY    30  30 100 NE7       29.99S WCI  23
ARBOR VITAE    CLOUDY    32  31  94 NE3       29.98R
WOODRUFF       CLOUDY    32  31  94 NE3       29.98R
RHINELANDER    CLOUDY    33  31  92 NE8       29.96F WCI  26
6HR MIN TEMP:  33; 6HR MAX TEMP:  36;

EAGLE RIVER    CLOUDY    32  31  98 NE5       29.97S WCI  27
6HR MIN TEMP:  32; 6HR MAX TEMP:  35;

LAND O LAKES   CLOUDY    32  31  98 NE5       30.01R WCI  27
PHILLIPS       CLOUDY    31  30  94 NE9       29.96S WCI  23
6HR MIN TEMP:  31; 6HR MAX TEMP:  36;

TOMAHAWK       CLOUDY    33  29  86 NE3       29.96S
MEDFORD        CLOUDY    35  30  83 NE9       29.91F WCI  27
MERRILL        CLOUDY    36  31  83 E5        29.95F WCI  32
6HR MIN TEMP:  35; 6HR MAX TEMP:  38;

$$

WIZ029-030-035-036-043>047-220700-
CENTRAL WISCONSIN

CITY           SKY/WX    TMP DP  RH WIND       PRES   REMARKS
WAUSAU         CLOUDY    35  30  82 NE9       29.91F WCI  28
6HR MIN TEMP:  35; 6HR MAX TEMP:  40;

MOSINEE        CLOUDY    34  32  93 E12       29.93F WCI  25
MARSHFIELD     CLOUDY    36  31  82 E13       29.89F WCI  27
6HR MIN TEMP:  36; 6HR MAX TEMP:  38;

STEVENS POINT  CLOUDY    33  31  91 NE12      29.92F WCI  25
WAUPACA        CLOUDY    37  33  87 NE5       29.93F FOG     WCI  33
WAUTOMA        MIX PCPN  35  34  96 NE8G17    29.91F FOG     WCI  29
6HR MIN TEMP:  35; 6HR MAX TEMP:  37;

WISC RAPIDS    CLOUDY    36  31  82 E10       29.90S HAZE    WCI  28
6HR MIN TEMP:  36; 6HR MAX TEMP:  40;

CAMP DOUGLAS   LGT RAIN  36  36  99 NE7       29.87S FOG     WCI  31
6HR MIN TEMP:  36; 6HR MAX TEMP:  40; 6HR PCP:  0.03;

$$

WIZ011>013-019>022-031-037>040-048>050-220700-
NORTHEAST WISCONSIN

CITY           SKY/WX    TMP DP  RH WIND       PRES   REMARKS
ANTIGO         CLOUDY    33  30  88 NE10      29.95S WCI  25
SHAWANO        CLOUDY    36  32  85 NE9       29.96S WCI  29
OCONTO         CLOUDY    33  32  94 NE7       29.99S WCI  27
STURGEON BAY   LGT RAIN  34  33  96 NE10      29.98F VSB 1/4 WCI  26
6HR MIN TEMP:  32; 6HR MAX TEMP:  34; 6HR PCP: TRACE;

GREEN BAY      FOG       33  31  92 NE14      29.95F VSB 1/2 WCI  23
6HR MIN TEMP:  32; 6HR MAX TEMP:  35;

MANITOWOC      LGT RAIN  36  35  96 NE6       29.94F FOG     WCI  31
6HR MIN TEMP:  34; 6HR MAX TEMP:  36; 6HR PCP: TRACE;

APPLETON       CLOUDY    34  34 100 NE9       29.92F FOG     WCI  26
CLINTONVILLE   CLOUDY    34  32  93 E9        29.95S FOG     WCI  26
OSHKOSH        CLOUDY    34  34 100 NE10      29.89F FOG     WCI  26
6HR MIN TEMP:  33; 6HR MAX TEMP:  35; 6HR PCP:  0.04;

$$

WIZ032>034-041-042-053>061-220700-
SOUTHWEST WISCONSIN

CITY           SKY/WX    TMP DP  RH WIND       PRES   REMARKS
LA CROSSE      CLOUDY    40  34  79 NE7       29.86S
6HR MIN TEMP:  35; 6HR MAX TEMP:  42; 6HR PCP: TRACE;

SPARTA         CLOUDY    37  35  92 E8        29.88F FOG     WCI  30
VIROQUA        CLOUDY    36  36 100 E14       29.81F WCI  27
6HR MIN TEMP:  36; 6HR MAX TEMP:  38; 6HR PCP:  0.02;

BOSCOBEL       CLOUDY    38  37  97 NE7       29.81F FOG     WCI  33
6HR MIN TEMP:  36; 6HR MAX TEMP:  39; 6HR PCP:  0.04;

PRAIRIE DU CHI CLOUDY    38  36  92 NE3       29.81S FOG
PLATTEVILLE    CLOUDY    37  37 100 E15       29.78F WCI  28
$$

WIZ056-057-062-063-064-067-068-220700-
SOUTH CENTRAL WISCONSIN

CITY           SKY/WX    TMP DP  RH WIND       PRES   REMARKS
REEDSBURG      CLOUDY    35  35 100 NE10      29.86S FOG     WCI  28
BARABOO/DELLS  DRZL/FOG  35  34  97 NE9       29.86F VSB 1/2 WCI  27
LONE ROCK      CLOUDY    38  37  97 E9        29.83F FOG     WCI  31
MINERAL POINT  LGT RAIN  37  37 100 E14       29.79F WCI  29
MADISON        LGT RAIN  36  36 100 NE10      29.84F FOG     WCI  28
6HR MIN TEMP:  36; 6HR MAX TEMP:  37; 6HR PCP:  0.09;

MIDDLETON      CLOUDY    38  38 100 E7        29.84F WCI  32
WATERTOWN      DRIZZLE   37  37 100 E10       29.84F WCI  29
MONROE         LGT RAIN  36  36 100 NE10      29.80S VSB 1/4 WCI  28
JANESVILLE     CLOUDY    37  37 100 E10       29.81F FOG     WCI  30
$$

WIZ051-052-058>065-066-070>072-220700-
SOUTHEAST WISCONSIN

CITY           SKY/WX    TMP DP  RH WIND       PRES   REMARKS
MILWAUKEE      DRZL/FOG  37  37 100 NE12      29.86F VSB 1/4 WCI  29
6HR MIN TEMP:  36; 6HR MAX TEMP:  38; 6HR PCP:  0.02;

WAUKESHA       LGT RAIN  34  34 100 E10       29.86F VSB 1   WCI  26
MILWAUKEE/TIMM DRIZZLE   36  34  93 NE7       29.88F WCI  30
RACINE         FOG       38  38 100 E9        29.87F VSB 3/4 WCI  31
6HR MIN TEMP:  36; 6HR MAX TEMP:  38; 6HR PCP:  0.01;

BURLINGTON     CLOUDY    37  36  96 NE6       29.84F FOG     WCI  32
KENOSHA        LGT RAIN  38  37  97 NE10      29.84F VSB 1/2 WCI  31
6HR MIN TEMP:  37; 6HR MAX TEMP:  38; 6HR PCP:  0.01;

FOND DU LAC    LGT RAIN  36  34  92 NE9       29.89F FOG     WCI  29
6HR MIN TEMP:  34; 6HR MAX TEMP:  37; 6HR PCP:  0.04;

SHEBOYGAN      LGT RAIN  35  35 100 NE15      29.90F FOG     WCI  25
6HR MIN TEMP:  34; 6HR MAX TEMP:  36; 6HR PCP:  0.06;

WEST BEND      FOG       34  34 100 E10       29.88F VSB 1/2 WCI  26
JUNEAU         DRIZZLE   35  35  99 NE9       29.88F WCI  28
$$

LSZ147-162-220700-
LAKE SUPERIOR

STATION/POSITION TIME  TEMP    WIND        PRES    WAVE
                       AIR SEA DIR/SP/G            HT/PER
                 (UTC) (F)     (DEG/KT/KT) (MB)    (FT/S)
DEVILS ISLAND    0500   28      60/ 23/ 25 1020.2R
SAXON HARBOR     0540   31      60/ 16/ 21 1017.3S
$$

LMZ867-665-643>646-220700-
LAKE MICHIGAN

STATION/POSITION TIME  TEMP    WIND        PRES    WAVE
                       AIR SEA DIR/SP/G            HT/PER
                 (UTC) (F)     (DEG/KT/KT) (MB)    (FT/S)
NORTHPORT PIER   0540   33      40/  3/  7 1015.9F
KEWAUNEE LAKESHO 0530   35      30/  8/ 12 1013.9F
SHEBOYGAN LAKESH 0500   36      40/ 14/ 15 1013.7F
PORT WASHINGTON  0530   36      40/  9/ 10 1013.9S
MILWAUKEE LAKESH 0530   36      20/ 10/ 11   N/A
KENOSHA   LAKESH 0500   35      10/  7/  8 1011.9
$$

TC  - TEMPERATURE IN CELSIUS
VSB - VISIBILITY IN STATUTE MILES
WCI - WIND CHILL INDEX
HX  - HEAT INDEX




USA.gov is the U.S. government's official web portal to all federal, state and local government web resources and services.